TimeCDT,TemperatureF,Dew PointF,Humidity,Sea Level PressureIn,VisibilityMPH,Wind Direction,Wind SpeedMPH,Gust SpeedMPH,PrecipitationIn,Events,Conditions,WindDirDegrees,DateUTC
12:15 AM,48.2,46.4,93,29.76,10.0,SSW,10.4,-,N/A,,Overcast,200,2013-03-11 05:15:00
12:35 AM,48.2,46.4,93,29.75,10.0,SSW,8.1,-,N/A,,Overcast,200,2013-03-11 05:35:00
12:55 AM,48.2,46.4,93,29.74,10.0,SSW,9.2,-,N/A,,Overcast,210,2013-03-11 05:55:00
1:15 AM,48.2,46.4,93,29.74,10.0,SSW,10.4,-,N/A,,Overcast,210,2013-03-11 06:15:00
1:35 AM,48.2,46.4,93,29.74,10.0,SSW,11.5,-,N/A,,Overcast,210,2013-03-11 06:35:00
1:55 AM,48.2,46.4,93,29.75,10.0,SW,12.7,-,N/A,,Overcast,220,2013-03-11 06:55:00
2:15 AM,48.2,44.6,87,29.75,4.0,West,10.4,16.1,N/A,,Overcast,260,2013-03-11 07:15:00
2:35 AM,46.4,44.6,93,29.75,5.0,West,8.1,-,N/A,,Overcast,280,2013-03-11 07:35:00
2:55 AM,46.4,42.8,87,29.75,6.0,West,6.9,-,N/A,,Overcast,270,2013-03-11 07:55:00
3:15 AM,44.6,42.8,93,29.74,9.0,West,4.6,-,N/A,,Overcast,270,2013-03-11 08:15:00
3:55 AM,44.6,42.8,93,29.70,10.0,Calm,Calm,-,N/A,,Overcast,0,2013-03-11 08:55:00
4:15 AM,44.6,42.8,93,29.73,10.0,WSW,4.6,-,N/A,,Overcast,250,2013-03-11 09:15:00
4:35 AM,44.6,42.8,93,29.75,10.0,SW,5.8,-,N/A,,Overcast,220,2013-03-11 09:35:00
4:55 AM,44.6,42.8,93,29.73,8.0,SW,3.5,-,N/A,,Overcast,220,2013-03-11 09:55:00
5:15 AM,46.4,42.8,87,29.74,7.0,SW,5.8,-,N/A,,Overcast,230,2013-03-11 10:15:00
5:35 AM,42.8,39.2,87,29.75,10.0,WSW,8.1,-,N/A,,Overcast,250,2013-03-11 10:35:00
5:55 AM,42.8,39.2,87,29.74,10.0,West,4.6,-,N/A,,Overcast,270,2013-03-11 10:55:00
6:15 AM,42.8,37.4,81,29.76,10.0,West,10.4,-,N/A,,Overcast,260,2013-03-11 11:15:00
6:35 AM,42.8,37.4,81,29.75,9.0,WNW,6.9,-,N/A,,Overcast,290,2013-03-11 11:35:00
6:55 AM,41.0,37.4,87,29.75,3.0,West,4.6,-,0.01,,Overcast,270,2013-03-11 11:55:00
7:15 AM,39.2,37.4,93,29.76,7.0,West,8.1,-,N/A,,Overcast,270,2013-03-11 12:15:00
7:35 AM,39.2,35.6,87,29.76,3.0,West,10.4,-,N/A,,Overcast,280,2013-03-11 12:35:00
7:55 AM,37.4,35.6,93,29.77,4.0,West,8.1,-,N/A,,Overcast,280,2013-03-11 12:55:00
8:15 AM,37.4,33.8,87,29.77,5.0,West,8.1,16.1,N/A,,Overcast,270,2013-03-11 13:15:00
8:35 AM,37.4,35.6,93,29.77,3.0,West,10.4,-,N/A,,Overcast,270,2013-03-11 13:35:00
8:55 AM,37.4,33.8,87,29.78,5.0,West,11.5,18.4,N/A,,Overcast,260,2013-03-11 13:55:00
9:15 AM,37.4,33.8,87,29.79,4.0,West,10.4,-,N/A,,Overcast,260,2013-03-11 14:15:00
9:35 AM,35.6,33.8,93,29.80,5.0,West,9.2,18.4,N/A,,Overcast,280,2013-03-11 14:35:00
9:55 AM,35.6,32.0,87,29.80,8.0,West,5.8,17.3,N/A,,Overcast,280,2013-03-11 14:55:00
10:15 AM,35.6,30.2,81,29.81,7.0,West,9.2,16.1,N/A,,Overcast,270,2013-03-11 15:15:00
10:35 AM,35.6,32.0,87,29.82,8.0,West,11.5,16.1,N/A,,Overcast,260,2013-03-11 15:35:00
10:55 AM,35.6,30.2,81,29.81,9.0,West,8.1,17.3,N/A,,Overcast,260,2013-03-11 15:55:00
11:15 AM,35.6,30.2,81,29.81,10.0,West,8.1,17.3,N/A,,Overcast,270,2013-03-11 16:15:00
11:35 AM,35.6,28.4,75,29.81,10.0,West,11.5,20.7,N/A,,Overcast,260,2013-03-11 16:35:00
11:55 AM,35.6,30.2,81,29.81,10.0,WSW,15.0,-,N/A,,Overcast,250,2013-03-11 16:55:00
12:15 PM,35.6,30.2,81,29.81,10.0,West,17.3,21.9,N/A,,Overcast,260,2013-03-11 17:15:00
12:35 PM,35.6,30.2,81,29.83,10.0,WSW,11.5,18.4,N/A,,Overcast,250,2013-03-11 17:35:00
12:55 PM,35.6,28.4,75,29.82,10.0,West,10.4,18.4,N/A,,Overcast,260,2013-03-11 17:55:00
1:15 PM,35.6,30.2,81,29.83,10.0,West,12.7,18.4,N/A,,Overcast,260,2013-03-11 18:15:00
1:35 PM,35.6,28.4,75,29.83,10.0,West,15.0,21.9,N/A,,Overcast,260,2013-03-11 18:35:00
1:55 PM,35.6,28.4,75,29.83,10.0,West,13.8,21.9,N/A,,Overcast,260,2013-03-11 18:55:00
2:15 PM,35.6,28.4,75,29.84,10.0,West,15.0,20.7,N/A,,Overcast,270,2013-03-11 19:15:00
2:35 PM,35.6,26.6,70,29.84,10.0,West,17.3,23.0,N/A,,Overcast,260,2013-03-11 19:35:00
2:55 PM,35.6,28.4,75,29.84,10.0,West,9.2,20.7,N/A,,Overcast,260,2013-03-11 19:55:00
3:35 PM,35.6,28.4,75,29.84,10.0,West,11.5,16.1,N/A,,Overcast,260,2013-03-11 20:35:00
3:55 PM,35.6,28.4,75,29.84,10.0,West,12.7,20.7,N/A,,Overcast,260,2013-03-11 20:55:00
4:15 PM,35.6,28.4,75,29.86,10.0,West,15.0,20.7,N/A,,Overcast,260,2013-03-11 21:15:00
4:35 PM,35.6,28.4,75,29.86,10.0,West,12.7,17.3,N/A,,Overcast,260,2013-03-11 21:35:00
4:55 PM,35.6,28.4,75,29.88,10.0,West,11.5,16.1,N/A,,Overcast,270,2013-03-11 21:55:00
5:15 PM,35.6,28.4,75,29.88,10.0,West,6.9,-,N/A,,Overcast,270,2013-03-11 22:15:00
5:35 PM,35.6,28.4,75,29.89,10.0,West,8.1,-,N/A,,Overcast,260,2013-03-11 22:35:00
6:15 PM,35.6,28.4,75,29.90,10.0,West,5.8,-,N/A,,Overcast,280,2013-03-11 23:15:00
6:35 PM,35.6,26.6,70,29.91,10.0,West,8.1,-,N/A,,Overcast,280,2013-03-11 23:35:00
6:55 PM,35.6,28.4,75,29.92,10.0,West,8.1,-,N/A,,Overcast,270,2013-03-11 23:55:00
7:15 PM,35.6,28.4,75,29.93,10.0,West,6.9,-,N/A,,Overcast,280,2013-03-12 00:15:00
7:35 PM,35.6,26.6,70,29.94,10.0,West,9.2,-,N/A,,Overcast,270,2013-03-12 00:35:00
7:55 PM,35.6,26.6,70,29.94,10.0,West,5.8,-,N/A,,Overcast,270,2013-03-12 00:55:00
8:15 PM,35.6,26.6,70,29.96,10.0,West,8.1,-,N/A,,Overcast,280,2013-03-12 01:15:00
8:35 PM,35.6,26.6,70,29.96,10.0,West,6.9,-,N/A,,Overcast,270,2013-03-12 01:35:00
8:55 PM,35.6,26.6,70,29.97,10.0,West,11.5,16.1,N/A,,Overcast,260,2013-03-12 01:55:00
9:15 PM,35.6,24.8,65,29.98,10.0,West,9.2,-,N/A,,Overcast,270,2013-03-12 02:15:00
9:35 PM,35.6,26.6,70,29.99,10.0,WSW,11.5,-,N/A,,Overcast,250,2013-03-12 02:35:00
9:55 PM,35.6,26.6,70,30.00,10.0,WSW,8.1,-,N/A,,Overcast,250,2013-03-12 02:55:00
10:15 PM,35.6,26.6,70,30.00,10.0,West,6.9,-,N/A,,Overcast,260,2013-03-12 03:15:00
10:35 PM,35.6,26.6,70,30.00,10.0,West,8.1,-,N/A,,Overcast,260,2013-03-12 03:35:00
10:55 PM,35.6,26.6,70,30.01,10.0,WSW,6.9,-,N/A,,Overcast,250,2013-03-12 03:55:00
11:15 PM,35.6,26.6,70,30.00,10.0,WSW,5.8,-,N/A,,Overcast,250,2013-03-12 04:15:00
11:55 PM,35.6,26.6,70,30.01,10.0,WSW,6.9,-,N/A,,Overcast,240,2013-03-12 04:55:00